Location: Bretagne
(43.8474°N, 0.4650°W)
Time: 13:04:00
(UTC+00:00)

Radarsat Rocket - Pass Details

Date: 29 April 2026
Orbit: 933 x 1491 km, 100.5° (Epoch: 12 May)

Event Time Altitude Azimuth Distance (km) Brightness Sun altitude
Rises 21:06:08 0° 230° (SW) 4,605 7.6 -19.4°
Reaches altitude 10° 21:12:27 10° 264° (W) 3,629 7.4 -20.2°
Maximum altitude 21:14:19 11° 277° (W) 3,557 7.6 -20.4°
Drops below altitude 10° 21:16:10 10° 289° (WNW) 3,605 7.8 -20.7°
Sets 21:22:25 0° 324° (NW) 4,500 9.0 -21.4°
